Regional Weather Roundup
Issued by NWS

Home | Current Version | Previous Version | Text Only | Print | Product List | Glossary On
Versions: 1 2 3 4 5 6 7 8 9 10 11 12 13 14 15 16 17 18 19 20 21 22 23 24 25 26 27
000
ASUS42 KFFC 251103
RWRGA
WEATHER ROUNDUP FOR GEORGIA
NATIONAL WEATHER SERVICE PEACHTREE CITY GA
700 AM EDT WED MAY 25 2016

NOTE: "FAIR" INDICATES FEW OR NO CLOUDS BELOW 12,000 FEET WITH NO
SIGNIFICANT WEATHER AND/OR OBSTRUCTIONS TO VISIBILITY.

* = USE WITH CAUTION. THE STATIONS MARKED WITH AN ASTERISK MAY NOT
REPORT WEATHER SUCH AS PRECIPITATION, FOG, OR THUNDER AND ARE NOT
QUALITY CONTROLLED BY NWS.

THE REMARK "TC" DENOTES TEMPERATURE READING IN DEGREES CELSIUS.

GAZ001>058-251200-
NORTH GEORGIA

CITY           SKY/WX    TMP DP  RH WIND       PRES   REMARKS
ATLANTA        PTCLDY    65  54  67 S3        30.19R
ATHENS         CLEAR     59  57  93 CALM      30.20R
CHAMBLEE       CLEAR     60  55  83 CALM      30.19R
PEACHTREE CITY CLEAR     55  54  96 CALM      30.19R
ROME           CLEAR     57  55  93 CALM      30.17R
WEST ATLANTA   CLEAR     58  55  90 CALM      30.19R
GAINESVILLE    CLEAR     61  57  87 CALM      30.22R FOG
CARTERSVILLE   CLEAR     56  55  97 CALM      30.19R


CITY           SKY/WX    TMP DP  RH WIND       PRES   REMARKS
DALTON*        CLEAR     55  55 100 CALM      30.18R
LAWRENCEVILLE* CLEAR     57  55  94 CALM      30.20
MARIETTA       MOCLDY    62  58  87 CALM      30.19R
KENNESAW*      PTCLDY    61  55  82 CALM      30.19
CANTON*        CLEAR     55  52  88 CALM      30.21S
BLAIRSVILLE*     N/A    N/A N/A N/A MISG      30.25R
$$

GAZ059>098-102>109-251200-
CENTRAL GEORGIA

CITY           SKY/WX    TMP DP  RH WIND       PRES   REMARKS
AUGUSTA-BUSH   CLEAR     58  58 100 CALM      30.20R
AUGUSTA-DANIEL CLEAR     68  58  70 CALM      30.21R
COLUMBUS       CLEAR     60  56  86 CALM      30.16S
MACON          CLEAR     58  57  97 CALM      30.19R FOG
ROBINS AFB     CLEAR     59  58  97 CALM      30.19R


CITY           SKY/WX    TMP DP  RH WIND       PRES   REMARKS
LAGRANGE*      CLEAR     56  56 100 CALM      30.18R
SYLVANIA*      CLEAR     64  63  94 CALM      30.21R FOG
MILLEDGEVILLE* CLEAR     61  59  94 CALM      30.20R
$$

GAZ099>101-110>166-251200-
SOUTH GEORGIA

CITY           SKY/WX    TMP DP  RH WIND       PRES   REMARKS
SAVANNAH       PTCLDY    66  63  90 CALM      30.21R
VALDOSTA       CLEAR     62  60  93 CALM      30.19R
ALMA           PTCLDY    61  61 100 CALM      30.21R
ST SIMONS      CLEAR     67  66  97 CALM      30.20R
FT STEWART     CLEAR     62  60  94 CALM      30.19R
ALBANY         CLEAR     62  57  83 E3        30.20R
HUNTER AFB     PTCLDY    64  64 100 CALM      30.19R FOG
MOODY AFB      CLEAR     62  58  88 E3        30.19R
BRUNSWICK      FOG       61  59  94 CALM      30.21R VSB<1/4


CITY           SKY/WX    TMP DP  RH WIND       PRES   REMARKS
BAINBRIDGE*    CLEAR     61  59  94 CALM      30.17R
MOULTRIE*      CLEAR     64  61  88 CALM      30.19R
VIDALIA*       CLEAR     63  61  94 CALM      30.20R
WAYCROSS*      CLOUDY    64  63  97 CALM      30.21R
DOUGLAS*       MOCLDY    68  63  83 CALM      30.22R
$$




USA.gov is the U.S. government's official web portal to all federal, state and local government web resources and services.